COSMOS 1162

Satellite information

Favourite Embed

Satellite Type and Status

PAYLOADIN ORBIT

Key statistics

Satellite COSMOS 1162 at a glance.

Uptime

16526

Days in orbit

Revolutions

≈ 12.4

Per day

Orbit

LEO

Low Earth Orbit

Inclination

74.0

Latest

Satellite identification and parameters

Extended collection of information and parameters for COSMOS 1162.

Object identification

Identified? True

Debris? False

Object name: COSMOS 1162

International designator: 1980-012G

Object number (NORAD): 11697

Object ID (CCSDS): 11697

Country: COMMONWEALTH OF INDEPENDENT STATES (CIS)

Current information (Y/N): Y

RCS size: MEDIUM

Orbital parameters

Period: 115.873 minutes

Inclination: 74.0213 deg

SMA: 7873.164 km

Apoapsis: 1518.979 km

Periapsis: 1471.08 km

RAAN: 72.7022 deg

Eccentricy: 0.0030419

Argument of periapsis: 248.2982 deg

Mean anomaly: 229.6657 deg

Mean motion: 12.42735769 rev/day

Mean motion (dot): -0.00000029 rev/day2

B* drag term: -0.000095835 1/REarth

Two-line elements (TLE)

Creation date: May 10, 2025, 5:27 p.m.

Reference frame: TEME

Reference center: EARTH

Epoch: May 10, 2025, 7:36 a.m. UTC

TLE line 0: 0 COSMOS 1162

TLE line 1: 1 11697U 80012G 25130.31691720 -.00000029 00000-0 -95835-4 0 9992

TLE line 2: 2 11697 74.0213 72.7022 0030419 248.2982 229.6657 12.42735769 52443

Live tracking on map

Real-time ground track for satellite COSMOS 1162.

In-orbit conjunctions

A list of the most updated potential collisions computed for object COSMOS 1162.

Target Orbit TCA Probability of collision Miss distance Type
THORAD DELTA 1 DEB SSO 2024-10-16 18:55:46 0.0002524025 568.0 (m) DEBRIS

Associated space launch

Military communications satellites

COSMOS 1162 was lifted into orbit during the mission ‘Kosmos-3M | Strela-1M 185-192’, on board a Kosmos-3M space rocket.

The launch took place on Feb. 11, 1980, 11:32 p.m. from 132/2.

For more information about the launch, click the button.

Launch to space Kosmos-3M | Strela-1M 185-192
Kosmos-3M | Strela-1M 185-192

Agency: N/A

Status: Launch Successful

Launch date: Feb. 11, 1980, 11:32 p.m. UTC

Rocket: Kosmos-3M

Launch pad: 132/2

Location: Plesetsk Cosmodrome, Russian Federation

...

Latest news about this satellite

There are no fresh news available about this satellite. Check back as we update our databases every day.


Newsletter sign-up

Weekly statistics, charts and insights to help you stay on top of the space industry.